{"data":{"norad_id":47981,"epoch":"2026-09-20T02:04:10.286688Z","epoch_age_seconds":66027,"freshness":"FRESH","line1":"1 47981U 21024E   26263.08623017  .00002743  00000+0  10014-3 0  9998","line2":"2 47981  53.1602 147.7613 0001398  85.3402 274.7759 15.31693684304419","mean_motion":15.31693684,"eccentricity":0.0001398,"inclination_deg":53.1602,"raan_deg":147.7613,"arg_perigee_deg":85.3402,"mean_anomaly_deg":274.7759,"bstar":0.00010014,"rev_number":30441,"period_min":94.013575628219,"perigee_km":469.80134732164,"apogee_km":471.71629859374,"semimajor_km":6848.8958229577,"source":"CELESTRAK","updated_at":"2026-09-20T09:00:38.758863Z"}}